Hourly Weather Roundup
Issued by NWS Central Illinois

Home | Current Version | Previous Version | Text Only | Print | Product List | Glossary On
Versions: 1 2 3 4 5 6 7 8 9 10 11 12 13 14 15 16 17 18 19 20 21 22 23 24 25 26 27 28 29 30 31 32 33 34 35 36 37 38 39 40 41 42 43 44 45 46 47 48 49 50
000
NZUS43 KILX 251410
HWRILX

Area Weather Roundup
National Weather Service Lincoln IL
900 AM CDT MON SEP 25 2017

NOTE:  "FAIR" indicates few or no clouds below 12,000 feet, with
       no sigificant weather and/or obstructions to visibility.


CITY           SKY/WX    TMP DP  RH WIND       PRES   REMARKS
Bloomington    MOSUNNY   75  65  70 S6        30.04S
Champaign      SUNNY     76  61  59 SE6       30.05R
Danville       SUNNY     73  59  63 CALM      30.03S
Decatur        SUNNY     74  64  71 S6        30.04R
Effingham      SUNNY     74  66  77 CALM      30.06S
Flora          MOSUNNY   76  66  71 CALM      30.04S
Galesburg      SUNNY     73  64  73 S5        30.01S
Jacksonville   SUNNY     75  64  69 S7        30.02S
Lacon          MOSUNNY   74  63  68 S3        30.00S
Lawrenceville  MOSUNNY   74  66  76 CALM      30.05R
Litchfield     HAZE      73  66  78 S5        30.03S VSB 1
$$


CITY           SKY/WX    TMP DP  RH WIND       PRES   REMARKS
Lincoln        SUNNY     74  65  74 S3        30.03R
Macomb         SUNNY     71  64  80 CALM      30.02S
Mattoon        SUNNY     75  65  70 S3        30.04S
Mt Carmel AP   MOSUNNY   75  67  77 CALM      30.04S
Olney-Noble AP SUNNY     74  69  82 CALM      30.05S
Paris AP       SUNNY     69  62  76 CALM      30.06R
Peoria         SUNNY     74  64  71 S3        30.01S
Pontiac        SUNNY     76  67  71 CALM      30.03S
Rantoul        SUNNY     73  62  67 SE5       30.05S
Robinson       MOSUNNY   73  65  74 CALM      30.06R
Springfield    SUNNY     77  66  68 S6        30.02R
Taylorville    SUNNY     75  65  70 S3        30.03S
$$

...REGIONAL REPORTS...


CITY           SKY/WX    TMP DP  RH WIND       PRES   REMARKS
Chicago O`Hare MOSUNNY   77  59  53 SE5       30.02R
Kankakee       SUNNY     73  62  67 S3        30.05S
Moline         SUNNY     73  62  68 E3        29.98S
Mount Sterling SUNNY     71  65  82 S6        30.01R
Mount Vernon     N/A     73  66  78 CALM      30.04S
Pittsfield     SUNNY     74  67  77 S6        30.03S
Quincy         SUNNY     74  65  73 S7        30.00R
Rockford       MOSUNNY   70  62  76 CALM      30.02S
$$


CITY           SKY/WX    TMP DP  RH WIND       PRES   REMARKS
Burlington     SUNNY     73  66  78 S3        29.98S
Cedar Rapids   MOSUNNY   73  64  73 S7        29.97R
Des Moines     MOSUNNY   71  65  81 W3        29.95R
Kirksville     MOSUNNY   73  66  78 SW5       29.99R
Ottumwa        MOSUNNY   74  64  71 S6        29.97R
St Louis       MOSUNNY   78  67  68 S3        30.03R HX  80
$$


CITY           SKY/WX    TMP DP  RH WIND       PRES   REMARKS
Terre Haute    MOSUNNY   75  60  59 S3        30.05R
Evansville     MOSUNNY   76  69  79 CALM      30.05R
Indianapolis   MOSUNNY   74  60  61 CALM      30.06S
Lafayette      PTSUNNY   68  60  75 CALM      30.05R
Madison        SUNNY     73  62  68 S6        30.00R
Milwaukee      MOSUNNY   79  61  53 VRB3      30.01S HX  80
$$





USA.gov is the U.S. government's official web portal to all federal, state and local government web resources and services.